TITAN 3C TRANSTAGE DEB, 25000

Orbit data source: Space-Track

TITAN 3C TRANSTAGE DEB, 25000 is space debris in GEO originally from a launch on Thu, 26 Sep 1968 UTC launched from the Air Force Eastern Test Range (AFETR). Debris objects in space refer to the collection of defunct objects orbiting the Earth. Examples of debris include non-operational satellites, rocket bodies, and fragments generated from explosions, collisions, or faulty payload assembly.

Loading next visibility...
Identifier
25000, 1968-081G
Orbit
GEO
Country
Flag of USUS
Related business
Manufacturer
Unknown
Mission
Spacecraft
Bus & Motor
Unknown
Mass
Unknown
Launch date (UTC)
1968-09-26 (57 years ago)
Launch vehicle
Unknown
Launch site
Air Force Eastern Test Range (AFETR)
Object type
Payload
Rocket body
Debris
Shape & HBR
Unknown shape, 1.1 m
Radar Cross Section
Medium (>0.1 m² and <1 m²)

Expand to show TLE details & history
Last TLE update: 18 hours ago

TLE from 18 hours ago
0 TITAN 3C TRANSTAGE DEB
1 25000U 68081G   25347.59939679  .00000087  00000-0  00000-0 0  9993
2 25000   1.5720  36.5629 0114487 292.0822 166.2969  1.01030529123449
Epoch: 2025-12-13T14:23Z
TLE epoch observation values (Epoch: 2025-12-13T14:23:07.882Z)
Latitude
1.56189°
Longitude
-163.06541°
Altitude
36,040.126 km
Speed
3.048 km/s
True Right ascension
09h 00m 58s
True Declination
1° 33' 37"
Sunlit
Object was in daylight at epoch
Visualization orbit readout
Latitude
Unknown
Longitude
Unknown
Altitude
Unknown
Speed
Unknown
Apparent Right ascension
Unknown
Apparent Declination
Unknown
Sunlit
N/A
Visualization observer readout
Local Sidereal Time
06:54:07
Azimuth
Unknown
Elevation
Unknown
Doppler factor
Unknown
Orbital elements
Apogee altitude
36,056.622 km
Perigee altitude
35,095.975 km
Semi-major axis
41,954.435 km
Eccentricity
0.01145
Inclination
1.572°
RAAN
36.5629°
Arg. of periapsis
292.0822°
True anomaly
166.60342°
Mean anomaly
166.2969°
Eccentric anomaly
166.45058°
Mean motion
0.25257 °/min
Orbital period
1,425.37 mins
BSTAR
0
Loading maneuver chart data...
Computing Atmospheric mass density...

Documentation

Showing up to 5 results
|